Regional Weather Roundup
Issued by NWS Grand Forks, ND

Home | Current Version | Previous Version | Graphics & Text | Print | Product List | Glossary On
Versions: 1 2 3 4 5 6 7 8 9 10 11 12 13 14 15 16 17 18 19 20 21 22 23 24 25 26 27 28 29 30 31 32 33 34 35 36 37 38 39 40 41 42 43 44 45 46 47 48 49 50
000
ASUS43 KFGF 051331
RWRFGF
PRAIRIE TO PINES  WEATHER ROUNDUP
NATIONAL WEATHER SERVICE EASTERN NORTH DAKOTA/GRAND FORKS ND
800 AM CDT SAT SEP 05 2015

 **SATELLITE DATA USED TO AUGMENT SKY COVER AT AUTOMATED STATIONS**
 *****  WEATHER ACROSS EASTERN NORTH DAKOTA  *****

CITY           SKY/WX    TMP DP  RH WIND       PRES   REMARKS
GRAND FORKS    FOG       64  63  94 N12       29.87F VSB 3/4
GRAND FRKS AFB FOG       63  63 100 N10       29.89S VSB 3/4
GRAND FRKS NWS   N/A     63 N/A N/A VRB5        N/A
DEVILS LAKE    CLOUDY    61  55  82 N10       29.92S
FARGO          PTSUNNY   69  67  93 N6        29.85R
WAHPETON ARPT  SUNNY     72  68  88 SE7       29.83F
$$

 ***** WEATHER ACROSS CENTRAL AND WESTERN NORTH DAKOTA  *****

CITY           SKY/WX    TMP DP  RH WIND       PRES   REMARKS
BISMARCK       CLOUDY    68  68 100 NE14      29.84R FOG
MINOT          CLOUDY    60  57  89 N10       29.91F
JAMESTOWN      FOG       67  66  97 E10       29.86S VSB 1/2
MINOT AFB      LGT RAIN  59  59 100 E25       29.86F
GARRISON         N/A     62  59  90 NE12G20   29.88S
WILLISTON      MOCLDY    58  56  93 NE7       29.85F
DICKINSON      CLOUDY    63  61  93 E17       29.82S
HETTINGER      LGT RAIN  63  62  97 E17       29.84F VSB 3/4
$$

 *****  OTHER AIRPORT OBSERVATIONS IN OUR AREA  *****

CITY           SKY/WX    TMP DP  RH WIND       PRES   REMARKS
WALHALLA       FOG       59  59 100 MISG      29.93R VSB 3/4
GRAFTON AIRPOR FOG       63  63 100 N10       29.91R VSB 3/4
VALLEY CITY AR FOG       66  66 100 NE8       29.87S VSB<1/4
CANDO          CLOUDY    57  57 100 NE10      29.96S FOG
CAVALIER APRT  FOG       63  63 100 N7        29.91F VSB 1/2
GWINNER        CLOUDY    70  70 100 NE3       29.84S
SHEYENNE NWR     N/A     68  68 100 N3        29.95S
ROLLA          FOG       55  55 100 N12       29.98F VSB 1/2
 ***** THE ABOVE OBSERVATIONS ARE NON NWS ARE NOT QUALITY
       CONTROLLED AND MAY MIS-REPORT RAIN FOR SNOW...
$$

  *****  WEATHER ACROSS NORTHERN MINNESOTA  *****

CITY           SKY/WX    TMP DP  RH WIND       PRES   REMARKS
FLAG ISLAND    FOG       64  64 100 NW6       29.91R VSB 1/2
WARROAD        PTSUNNY   63  59  88 CALM      29.91F FOG
ROSEAU         HAZE      63  57  82 CALM      29.91F VSB 1/4
HALLOCK        CLOUDY    63  63 100 CALM      29.90S FOG
THF RVR FALLS  CLOUDY    70  70 100 NE6       29.89S
BAUDETTE       CLOUDY    68  66  93 SE10      29.91S
WASKISH        CLOUDY    70  68  94 E5        29.92R
CROOKSTON      PTSUNNY   66  66 100 NE5       29.88S
STEPHEN NDAWN    N/A     63  63 100 N8          N/A
GREENBUSH NDAW   N/A     63  63 100 N5          N/A
$$
  *****  WEATHER ACROSS CENTRAL AND WEST MINNESOTA  *****

CITY           SKY/WX    TMP DP  RH WIND       PRES   REMARKS
FOSSTON        SUNNY     70  66  88 CALM      29.89S
BEMIDJI        CLOUDY    71  70  98 SE6       29.91R
PARK RAPIDS    CLOUDY    73  69  87 SE8       29.90S
ELBOW LAKE     FAIR      73  70  90 SE10      29.85S
WADENA         SUNNY     72  70  94 SE9       29.88S
DETROIT LAKES  SUNNY     72  70  94 SE8       29.89R
MOORHEAD       SUNNY     70  68  94 N3        29.86R FOG
FERGUS FALLS   SUNNY     73  72  94 SE8       29.83F
MORRIS MN      MOSUNNY   73  72  94 SE12      29.84F
STAPLES        MOSUNNY   73  70  88 S9        29.90R
$$
  *****  WEATHER ELSEWHERE ACROSS MINNESOTA  *****

CITY           SKY/WX    TMP DP  RH WIND       PRES   REMARKS
DULUTH         PTSUNNY   68  64  87 SE12      30.00R
INTRNTL FALLS  CLOUDY    68  66  93 SE7       29.93S
ELY            CLOUDY    64  63  94 CALM      29.99S
CLOQUET        CLOUDY    66  63  88 E6        29.99S
WHEATON        SUNNY     68  68 100 SE8       29.85R FOG
BRAINERD       CLOUDY    72  69  90 CALM      29.92R
HIBBING        CLOUDY    69  67  93 E3        29.98R
ALEXANDRIA     SUNNY     72  70  93 SE9       29.89F
SAINT CLOUD    PTSUNNY   72  68  87 SE15      29.90F
MINNEAPOLIS    LGT RAIN  75  70  84 CALM      29.97R
$$

  *****  WEATHER ACROSS SOUTH DAKOTA  *****

CITY           SKY/WX    TMP DP  RH WIND       PRES   REMARKS
SIOUX FALLS    CLOUDY    73  68  84 S10       29.86S
BROOKINGS      MOSUNNY   72  66  83 SE12      29.87S
WATERTOWN      MOSUNNY   70  67  90 SE12      29.84S
HURON          CLOUDY    70  67  90 SE8       29.78R
SISSETON         N/A     69  69 100 SW3       29.83R
ABERDEEN       PTCLDY    70  68  93 NE5       29.81R
MITCHELL       CLOUDY    72  68  87 SE10      29.80S
PIERRE         CLOUDY    69  68  96 S7        29.78R
MOBRIDGE       FOG       71  71 100 E9        29.78F VSB 1
RAPID CITY     CLOUDY    63  59  87 CALM      29.83S
$$

  *****  SOME WEATHER IN NEARBY STATES *****

CITY           SKY/WX    TMP DP  RH WIND       PRES   REMARKS
GLASGOW MT     CLOUDY    53  48  83 N8        29.90S
GREAT FALLS MT LGT RAIN  46  46 100 N12       29.91S VSB 3/4
CHEYENNE WY    CLOUDY    63  47  55 CALM      30.02R
SCOTTSBLUFF NE CLOUDY    65  56  72 NW7       29.88R
OMAHA NE       PTSUNNY   76  69  79 S16       29.94R
DES MOINES IA  CLOUDY    74  68  81 S8        30.00S
DAVENPORT IA   CLOUDY    75  70  84 S5        30.08R
CHICAGO IL     PTSUNNY   73  67  81 SW6       30.09R
EAU CLAIRE WI  MOSUNNY   70  67  90 NE5       30.01S
LA CROSSE WI   CLOUDY    74  69  85 S9        30.01S
$$

  *****  SOME NATIONAL WEATHER *****

CITY           SKY/WX    TMP DP  RH WIND       PRES   REMARKS
LA GUARDIA NY  MOSUNNY   69  57  65 NE13      30.27S
RALEIGH NC     CLOUDY    73  70  88 NE9       30.16R FOG
ATLANTA GA     MOSUNNY   74  65  73 E12G18    30.13R
NEW ORLEANS LA PTSUNNY   80  75  84 CALM      30.03R
OKLAHOMA CITY  MOSUNNY   74  70  87 SE8       30.01R
ALBUQUERQUE NM CLOUDY    65  59  81 N3        30.16S
SALT LAKE CITY PTCLDY    73  42  32 S23G32    29.84S
LOS ANGELES CA MOCLDY    65  60  84 NE5       29.89R
BOISE ID       MOCLDY    47  38  71 S3        29.97R
SEATTLE WA     PTCLDY    48  46  93 SE5       30.05R
$$

*** WEATHER ACROSS MANITOBA...SASKATCHEWAN AND ONTARIO ***
                ***ONTARIO***

CITY           SKY/WX    TMP DP  RH WIND       PRES   REMARKS
GERALDTON      PTSUNNY   64  63  94 S10       30.04F
THUNDER BAY    CLOUDY    64  63  94 E6        30.02S
SIOUX LOOKOUT  CLOUDY    68  66  94 SW9       29.92R
TORONTO        MOSUNNY   72  63  73 SE5       30.18R
BIG TROUT LK   LGT RAIN  64  63  94 NE8G17    29.88F FOG
PICKLE LAKE    PTSUNNY   64  63  94 S7        29.89F
DRYDEN         MOSUNNY   68  66  94 SW10      29.93R
KENORA         CLOUDY    64  64 100 VRB2      29.93S FOG
$$
                *** MANITOBA***

CITY           SKY/WX    TMP DP  RH WIND       PRES   REMARKS
BRANDON        TSTM      57  55  94 NE14      30.02R FOG
DAUPHIN        CLOUDY    54  52  94 NW2       29.99R
ISLAND LAKE    CLOUDY    55  54  94 NE8       29.97R
PILOT MOUND      N/A     57  57 100 NW8         N/A
THE PAS        CLOUDY    57  48  72 NE6       30.09R
THOMPSON       MOCLDY    50  48  93 N9        30.07S
WINNIPEG       CLOUDY    64  63  94 N5        29.92F
LYNN LAKE      MOCLDY    45  45 100 N3        30.15R
CHURCHILL      PTSUNNY   46  46 100 N9        30.13S
$$
                ***SASKATCHEWAN***

CITY           SKY/WX    TMP DP  RH WIND       PRES   REMARKS
ESTEVAN        CLOUDY    54  54 100 NE10      29.92S
KINDERSLEY     MOCLDY    46  45  93 N9        30.08S
LLOYDMINSTER   NOT AVBL
PRINCE ALBERT  MOCLDY    50  45  81 N3        30.12R
REGINA         LGT RAIN  50  48  93 E20G25    30.00F FOG
YORKTON        RAIN      50  48  93 NW8       30.07F FOG
N. BATTLEFORD  CLOUDY    46  43  87 NE10      30.14F
LA RONGE       MOCLDY    50  46  87 N6        30.17R
SASKATOON      LGT RAIN  48  46  93 E9        30.11S
SWIFT CURRENT  LGT RAIN  48 N/A N/A NE20G26   29.99R
$$
NOTE: THESE ARE AUTOMATED STATIONS WITH LIMITED QUALITY CONTROL
      "FAIR" INDICATES FEW OR NO CLOUDS BELOW 12,000 FEET WITH NO
      SIGNIFICANT WEATHER AND/OR OBSTRUCTIONS TO VISIBILITY.
      SKY/WX - SKY CONDITION AND SIGNIFICANT WEATHER.
      TMP - AIR TEMPERATURE.    DP   - DEWPOINT TEMPERATURE.
      RH  - RELATIVE HUMIDITY.  PRES - PRESSURE.
      HX  - HEAT INDEX.         WCI  - WIND CHILL INDEX.
$


USA.gov is the U.S. government's official web portal to all federal, state and local government web resources and services.